Location: North Bay
(46.3091°N, 79.4608°W)
Time: 21:19:22
(UTC-05:00)

ISS - Pass Details

Date: 29 October 2019
Orbit: 412 x 421 km, 51.6° (Epoch: 20 November)

Event Time Altitude Azimuth Distance (km) Brightness Sun altitude
Exits shadow 06:08:19 64° 231° (SW) 470 -3.8 -18.8°
Maximum altitude 06:08:46 85° 154° (SSE) 428 -3.8 -18.7°
Drops below altitude 10° 06:12:10 10° 64° (ENE) 1,509 0.0 -18.2°
Sets 06:14:16 0° 64° (ENE) 2,375 1.2 -17.8°
